Sitka, AK

4:46 AM AKDT on September 22, 2017 (GMT -0800)
Sitka Rocky Gutierrez

Weather History for PASI - March, 2012

Change the Weather History Date:

Friday, March 16, 2012

  Actual Average Record
Temperature  
Mean Temperature 34 °F -  
Max Temperature 37 °F 44 °F 56 °F (1990)
Min Temperature 30 °F 32 °F 8 °F (2006)
Degree Days  
Heating Degree Days 32    
Moisture  
Dew Point 32 °F    
Average Humidity 94    
Maximum Humidity 100    
Minimum Humidity 81    
Precipitation  
Precipitation 0.28 in - - ()
Sea Level Pressure  
Sea Level Pressure 29.32 in    
Wind  
Wind Speed 6 mph (ESE)    
Max Wind Speed 15 mph    
Max Gust Speed 21 mph    
Visibility 9 miles    
Events Rain , Snow    
Averages and records for this station are not official NWS values.
T = Trace of Precipitation, MM = Missing Value Source: NWS Daily Summary

Daily Weather History Graph

Daily Weather History Graph

Search for Another Location

Airport or City:

Trip Planner

Search our weather history database for the weather conditions in past years. The results will help you decide how hot, cold, wet, or windy it might be!

Date:

Astronomy

Mar. 16, 2012 Rise Set
Actual Time 7:12 AM AKDT 7:08 PM AKDT
Civil Twilight 6:34 AM AKDT 7:46 PM AKDT
Nautical Twilight 5:49 AM AKDT 8:31 PM AKDT
Astronomical Twilight 5:02 AM AKDT 9:19 PM AKDT
Moon 4:40 AM AKDT (3/16) 12:35 PM AKDT (3/16)
Length of Visible Light 13h 12m
Length of Day
11h 55m
Waning Crescent, 31% of the Moon is Illuminated
Mar 16
Waning Crescent
Mar 22
New
Mar 30
First Quarter
Apr 6
Full
Apr 13
Last Quarter

Hourly Weather History & Observations

Time (AKDT) Temp. Windchill Dew Point Humidity Pressure Visibility Wind Dir Wind Speed Gust Speed Precip Events Conditions
12:04 AM 35.6 °F 29.9 °F 33.8 °F 93% 29.12 in 10.0 mi East 6.9 mph - 0.00 in Rain Light Rain
12:53 AM 35.1 °F 28.6 °F 34.0 °F 96% 29.14 in 8.0 mi East 8.1 mph - 0.04 in Rain Light Rain
1:04 AM 35.6 °F 29.9 °F 33.8 °F 93% 29.15 in 10.0 mi East 6.9 mph - 0.00 in Rain Light Rain
1:11 AM 35.6 °F 29.2 °F 33.8 °F 93% 29.15 in 10.0 mi East 8.1 mph - 0.00 in Rain Light Rain
1:53 AM 35.1 °F 29.3 °F 34.0 °F 96% 29.17 in 10.0 mi East 6.9 mph - 0.01 in   Overcast
2:17 AM 35.6 °F 28.0 °F 32.0 °F 87% 29.19 in 10.0 mi SE 10.4 mph - N/A   Overcast
2:53 AM 36.0 °F 28.5 °F 30.9 °F 82% 29.20 in 10.0 mi ESE 10.4 mph - 0.00 in Rain Light Rain
3:18 AM 35.6 °F 30.7 °F 30.2 °F 81% 29.21 in 10.0 mi East 5.8 mph - 0.00 in   Overcast
3:53 AM 34.0 °F 25.0 °F 30.9 °F 89% 29.22 in 10.0 mi ESE 12.7 mph - 0.00 in   Overcast
4:53 AM 34.0 °F 26.6 °F 30.9 °F 89% 29.23 in 10.0 mi East 9.2 mph - 0.00 in   Mostly Cloudy
5:01 AM 33.8 °F 26.4 °F 32.0 °F 93% 29.23 in 10.0 mi East 9.2 mph - N/A   Scattered Clouds
5:20 AM 33.8 °F 23.9 °F 30.2 °F 87% 29.24 in 5.0 mi SE 15.0 mph 20.7 mph 0.00 in Snow Light Snow
5:53 AM 34.0 °F 25.5 °F 32.0 °F 92% 29.25 in 7.0 mi ESE 11.5 mph - 0.01 in Snow Light Snow
6:18 AM 33.8 °F 24.8 °F 30.2 °F 87% 29.25 in 10.0 mi East 12.7 mph - 0.00 in Rain Light Rain
6:53 AM 33.1 °F 25.5 °F 32.0 °F 96% 29.26 in 10.0 mi East 9.2 mph - 0.00 in   Mostly Cloudy
7:01 AM 33.8 °F 27.0 °F 32.0 °F 93% 29.26 in 10.0 mi ESE 8.1 mph - N/A   Overcast
7:24 AM 33.8 °F 25.8 °F 32.0 °F 93% 29.27 in 10.0 mi ESE 10.4 mph - 0.00 in   Mostly Cloudy
7:35 AM 33.8 °F 25.8 °F 30.2 °F 87% 29.27 in 10.0 mi East 10.4 mph - 0.00 in   Mostly Cloudy
7:50 AM 33.8 °F 24.8 °F 32.0 °F 93% 29.27 in 10.0 mi East 12.7 mph - 0.00 in   Mostly Cloudy
7:53 AM 34.0 °F 25.5 °F 32.0 °F 92% 29.28 in 10.0 mi East 11.5 mph - 0.00 in   Mostly Cloudy
8:53 AM 34.0 °F - 33.1 °F 96% 29.30 in 5.0 mi Calm Calm - 0.01 in Snow Light Snow
9:17 AM 33.8 °F - 33.8 °F 100% 29.30 in 9.0 mi Calm Calm - 0.00 in Snow Light Snow
9:53 AM 35.1 °F - 32.0 °F 89% 29.31 in 10.0 mi Calm Calm - 0.00 in   Overcast
10:09 AM 35.6 °F - 33.8 °F 93% 29.32 in 10.0 mi Calm Calm - 0.00 in Rain Light Rain
10:39 AM 35.6 °F 32.8 °F 33.8 °F 93% 29.32 in 10.0 mi ESE 3.5 mph - 0.00 in   Overcast
10:53 AM 36.0 °F - 33.1 °F 89% 29.33 in 10.0 mi Calm Calm - 0.00 in   Overcast
11:53 AM 37.0 °F 34.5 °F 34.0 °F 89% 29.34 in 10.0 mi South 3.5 mph - N/A   Overcast
12:53 PM 36.0 °F 31.1 °F 33.1 °F 89% 29.36 in 10.0 mi WSW 5.8 mph - N/A   Overcast
1:24 PM 35.6 °F 31.7 °F 33.8 °F 93% 29.36 in 8.0 mi SSW 4.6 mph - 0.01 in Rain , Snow Light Snow
1:53 PM 37.0 °F - 34.0 °F 89% 29.37 in 10.0 mi Calm Calm - 0.01 in Rain Light Rain
2:53 PM 37.0 °F 33.3 °F 33.1 °F 86% 29.37 in 10.0 mi WSW 4.6 mph - 0.00 in Rain Light Rain
3:15 PM 37.4 °F 34.9 °F 33.8 °F 87% 29.38 in 5.0 mi WNW 3.5 mph - 0.01 in Rain Light Rain
3:44 PM 33.8 °F 30.8 °F 32.0 °F 93% 29.39 in 3.0 mi South 3.5 mph - 0.08 in Rain , Snow Snow
3:53 PM 35.1 °F 27.9 °F 32.0 °F 89% 29.40 in 7.0 mi South 9.2 mph - 0.09 in Rain Light Rain
4:12 PM 33.8 °F 30.8 °F 32.0 °F 93% 29.40 in 2.0 mi SW 3.5 mph - 0.03 in Snow Light Snow
4:21 PM 33.8 °F - 33.8 °F 100% 29.40 in 5.0 mi Calm Calm - 0.04 in Snow Light Snow
4:53 PM 33.1 °F 28.7 °F 33.1 °F 100% 29.40 in 7.0 mi NE 4.6 mph - 0.05 in Rain Light Rain
5:31 PM 32.0 °F 26.4 °F 30.2 °F 93% 29.41 in 3.0 mi ENE 5.8 mph - 0.03 in Snow Light Snow
5:53 PM 32.0 °F 26.4 °F 32.0 °F 100% 29.41 in 3.0 mi ENE 5.8 mph - 0.05 in Snow Light Snow
6:27 PM 33.8 °F 30.8 °F 33.8 °F 100% 29.40 in 9.0 mi ENE 3.5 mph - 0.01 in Snow Light Snow
6:53 PM 33.1 °F 28.7 °F 33.1 °F 100% 29.41 in 10.0 mi ENE 4.6 mph - 0.01 in   Mostly Cloudy
7:29 PM 32.0 °F 28.7 °F 32.0 °F 100% 29.41 in 10.0 mi East 3.5 mph - N/A   Mostly Cloudy
7:53 PM 32.0 °F - 32.0 °F 100% 29.42 in 10.0 mi Calm Calm - N/A   Mostly Cloudy
8:40 PM 32.0 °F - 32.0 °F 100% 29.42 in 10.0 mi Calm Calm - N/A   Overcast
8:53 PM 32.0 °F - 32.0 °F 100% 29.42 in 10.0 mi Calm Calm - N/A   Overcast
9:53 PM 30.9 °F - 30.9 °F 100% 29.42 in 10.0 mi Calm Calm - N/A   Mostly Cloudy
10:05 PM 30.2 °F - 30.2 °F 100% 29.42 in 10.0 mi Calm Calm - N/A   Scattered Clouds
10:53 PM 30.9 °F - 30.9 °F 100% 29.43 in 10.0 mi Calm Calm - N/A   Clear
11:27 PM 30.2 °F - 30.2 °F 100% 29.44 in 9.0 mi Calm Calm - N/A   Mostly Cloudy
11:45 PM 30.2 °F - 30.2 °F 100% 29.44 in 5.0 mi Calm Calm - N/A   Scattered Clouds
11:53 PM 30.0 °F - 30.0 °F 100% 29.43 in 10.0 mi Calm Calm - N/A   Partly Cloudy